TimeAKST,TemperatureF,Dew PointF,Humidity,Sea Level PressureIn,VisibilityMPH,Wind Direction,Wind SpeedMPH,Gust SpeedMPH,PrecipitationIn,Events,Conditions,WindDirDegrees,DateUTC
12:56 AM,-24.0,-31.0,70,29.85,-9999.0,ENE,25.3,-,N/A,,Clear,70,2013-02-25 09:56:00
1:56 AM,-24.0,-31.0,70,29.86,-9999.0,ENE,26.5,-,N/A,,Clear,70,2013-02-25 10:56:00
2:56 AM,-23.8,-31.0,69,29.85,-9999.0,ENE,25.3,-,N/A,,Clear,70,2013-02-25 11:56:00
3:56 AM,-24.0,-29.9,74,29.87,-9999.0,East,27.6,-,0.00,Snow,Light Snow,80,2013-02-25 12:56:00
4:26 AM,-23.8,-29.2,76,29.86,-9999.0,East,25.3,-,0.00,,Mostly Cloudy,80,2013-02-25 13:26:00
4:35 AM,-23.8,-29.2,76,29.86,-9999.0,East,23.0,-,0.00,,Clear,80,2013-02-25 13:35:00
4:56 AM,-24.0,-29.9,74,29.88,-9999.0,East,24.2,-,0.00,Snow,Light Snow,80,2013-02-25 13:56:00
5:56 AM,-23.8,-29.2,76,29.86,-9999.0,ENE,25.3,-,N/A,Snow,Light Snow,70,2013-02-25 14:56:00
6:11 AM,-23.8,-29.2,76,29.86,-9999.0,ENE,24.2,-,0.00,Snow,Light Snow,70,2013-02-25 15:11:00
6:56 AM,-22.9,-28.8,74,29.88,-9999.0,East,21.9,26.5,0.00,Snow,Light Snow,80,2013-02-25 15:56:00
7:56 AM,-22.0,-27.9,74,29.88,-9999.0,East,19.6,-,0.00,,Mostly Cloudy,80,2013-02-25 16:56:00
8:56 AM,-20.2,-27.4,69,29.87,-9999.0,East,19.6,-,N/A,Snow,Light Snow,80,2013-02-25 17:56:00
9:56 AM,-20.9,-26.9,74,29.89,-9999.0,East,16.1,-,0.00,,Mostly Cloudy,80,2013-02-25 18:56:00
10:56 AM,-19.8,-26.0,73,29.91,-9999.0,East,16.1,-,0.00,Snow,Light Snow,80,2013-02-25 19:56:00
11:56 AM,-18.9,-24.9,74,29.92,-9999.0,East,17.3,-,0.00,Snow,Light Snow,80,2013-02-25 20:56:00
12:06 PM,-18.4,-25.6,70,29.90,-9999.0,East,16.1,-,0.00,Snow,Light Snow,90,2013-02-25 21:06:00
12:19 PM,-18.4,-25.6,70,29.90,-9999.0,East,11.5,-,0.00,Snow,Light Snow,80,2013-02-25 21:19:00
12:56 PM,-17.9,-24.0,74,29.92,-9999.0,East,15.0,-,0.00,,Mostly Cloudy,80,2013-02-25 21:56:00
1:56 PM,-17.0,-22.9,74,29.93,-9999.0,East,15.0,-,0.00,Snow,Light Snow,80,2013-02-25 22:56:00
2:56 PM,-16.6,-23.8,70,29.92,-9999.0,East,12.7,17.3,N/A,,Mostly Cloudy,80,2013-02-25 23:56:00
3:56 PM,-15.9,-22.0,74,29.93,-9999.0,East,11.5,-,0.00,Snow,Light Snow,80,2013-02-26 00:56:00
4:56 PM,-15.9,-22.0,74,29.95,-9999.0,Calm,Calm,-,0.00,Snow,Light Snow,0,2013-02-26 01:56:00
5:07 PM,-16.6,-22.0,76,29.94,-9999.0,Calm,Calm,-,0.00,Snow,Light Snow,0,2013-02-26 02:07:00
5:15 PM,-16.6,-22.0,76,29.94,-9999.0,Calm,Calm,-,0.00,Snow,Light Snow,0,2013-02-26 02:15:00
5:56 PM,-17.0,-22.0,78,29.96,-9999.0,Calm,Calm,-,0.00,,Overcast,0,2013-02-26 02:56:00
6:12 PM,-16.6,-22.0,76,29.94,-9999.0,Calm,Calm,-,N/A,,Overcast,0,2013-02-26 03:12:00
6:56 PM,-17.0,-22.0,78,29.96,-9999.0,Calm,Calm,-,0.00,Snow,Light Snow,0,2013-02-26 03:56:00
7:04 PM,-16.6,-23.8,70,29.95,-9999.0,Calm,Calm,-,0.00,Snow,Light Snow,0,2013-02-26 04:04:00
7:30 PM,-16.6,-22.0,76,29.95,-9999.0,Calm,Calm,-,0.00,Snow,Light Snow,0,2013-02-26 04:30:00
7:42 PM,-16.6,-22.0,76,29.95,-9999.0,Calm,Calm,-,0.00,Snow,Light Snow,0,2013-02-26 04:42:00
7:56 PM,-15.9,-22.0,74,29.97,-9999.0,Calm,Calm,-,0.00,Snow,Light Snow,0,2013-02-26 04:56:00
8:06 PM,-16.6,-22.0,76,29.96,-9999.0,Calm,Calm,-,0.00,Snow,Light Snow,0,2013-02-26 05:06:00
8:45 PM,-14.8,-20.2,77,29.97,-9999.0,Calm,Calm,-,0.00,,Overcast,0,2013-02-26 05:45:00
8:56 PM,-14.8,-20.2,77,29.97,-9999.0,Calm,Calm,-,N/A,,Overcast,0,2013-02-26 05:56:00
9:56 PM,-15.0,-19.8,79,29.99,-9999.0,Calm,Calm,-,0.00,,Overcast,0,2013-02-26 06:56:00
10:33 PM,-14.8,-20.2,77,29.97,-9999.0,Calm,Calm,-,0.00,Snow,Light Snow,0,2013-02-26 07:33:00
10:56 PM,-13.9,-19.8,75,29.99,-9999.0,Calm,Calm,-,0.00,,Overcast,0,2013-02-26 07:56:00
11:23 PM,-14.8,-20.2,77,29.99,-9999.0,Calm,Calm,-,0.00,Snow,Light Snow,0,2013-02-26 08:23:00
11:56 PM,-14.8,-18.4,84,29.99,-9999.0,Calm,Calm,-,N/A,Snow,Light Snow,0,2013-02-26 08:56:00